Location: Vigo di Fassa
(46.4167°N, 11.6667°E)
Time: 06:22:58
(UTC+00:00)

Cosmos 2369 Rocket - Pass Details

Date: 03 March 2021
Orbit: 829 x 852 km, 71.0° (Epoch: 18 April)

Event Time Altitude Azimuth Distance (km) Brightness Sun altitude
Rises 19:45:36 0° 341° (NNW) 3,382 5.9 -28.4°
Reaches altitude 10° 19:49:49 10° 12° (NNE) 2,447 4.7 -29.1°
Enters shadow 19:50:58 12° 23° (NNE) 2,329 4.5 -29.3°
